Simultaneous Nadir Overpasses (SNOs) Predictions

Prediction of SNOs over PacNW region [( 10.00, 139.50) to ( 22.70, 165.60)] between AQUA and NPP Satellites:

Table of predicted SNOs over PacNW region for the next 30.0 days since TLE Epoch: 11/8/2013
Index Date (AQUA) Time (AQUA) AQUA Lat,Lon Date (NPP) Time (NPP) NPP Lat,Lon Distance(km) Time Diff (sec)
1 11/13/2013 16:00:06 22.61, 147.29 11/13/2013 16:03:05 23.22, 144.60 283.88 179
2 11/21/2013 15:10:47 22.59, 159.62 11/21/2013 15:12:21 23.11, 157.30 245.15 94
3 11/24/2013 03:32:38 22.68, 147.30 11/24/2013 03:29:08 24.63, 145.33 295.29 210
4 11/29/2013 16:00:12 22.63, 147.27 11/29/2013 16:03:02 23.22, 144.68 274.07 170




NCC Satellite Simultaneous Nadir Overpasses (SNOs) Prediction Service
